Location: Unspecified
(0.0000°N, 0.0000°E)
Time: 00:00:42
(UTC+00:00)

Amateur Radio Satellites - All Passes

Search period start: 24 March 2017 23:30
Search period end: 25 March 2017 23:30
Location: Unspecified, 0.0000°N, 0.0000°E

Satellite Date Start Highest point End Downlink Frequencies (MHz)
Time Altitude Azimuth
JUGNU 24 Mar 23:40:32 23:43:08 13° 170° (S) 23:45:42 437.505
BUGSAT 1 24 Mar 23:46:52 23:50:28 30° 102° (ESE) 23:54:03 437.445
SRMSAT 24 Mar 23:50:26 23:50:50 10° 184° (S) 23:51:14 437.500
SPROUT 24 Mar 23:59:12 00:03:29 82° 78° (ENE) 00:07:46 437.525
NANOSAT C BR1 25 Mar 00:06:32 00:09:59 25° 282° (WNW) 00:13:26 145.865
EO-79 25 Mar 00:10:00 00:13:07 20° 282° (WNW) 00:16:15 145.935-145.965
DX 1 25 Mar 00:18:42 00:22:57 56° 78° (ENE) 00:27:11 434.975-435.025
VELOX 1 25 Mar 00:34:56 00:38:35 26° 258° (WSW) 00:42:13 145.980
Gurwin Techsat 1B 25 Mar 00:41:20 00:44:58 19° 103° (ESE) 00:48:36 435.225
Oscar 19 25 Mar 00:43:12 00:48:03 42° 103° (ESE) 00:52:57 437.125/150
50 SAT 25 Mar 01:02:07 01:03:28 12° 258° (WSW) 01:04:50 437.505
UKube-1 25 Mar 01:03:18 01:07:28 49° 258° (WSW) 01:11:36 .
SO-50 25 Mar 01:08:00 01:12:28 72° 69° (ENE) 01:17:00 436.795
RS-15 25 Mar 01:09:56 01:17:28 20° 248° (WSW) 01:24:53 29.354- 29.394
JUGNU 25 Mar 01:27:55 01:32:46 27° 162° (SSE) 01:37:37 437.505
SRMSAT 25 Mar 01:39:37 01:41:13 11° 173° (S) 01:42:50 437.500
AO-7 25 Mar 01:42:07 01:45:06 12° 108° (ESE) 01:48:03 .
BEESAT 25 Mar 01:55:34 01:59:36 27° 78° (ENE) 02:03:37 436.000
ITUPSAT 1 25 Mar 02:09:51 02:14:22 41° 78° (ENE) 02:18:51 437.325
Gurwin Techsat 1B 25 Mar 02:20:10 02:24:37 28° 283° (WNW) 02:29:05 435.225
Oscar 19 25 Mar 02:25:25 02:27:05 11° 283° (WNW) 02:28:45 437.125/150
ITAMSAT 1 25 Mar 02:25:39 02:30:19 34° 103° (ESE) 02:34:58 435.822/435.867
MOZHAYETS 4 25 Mar 02:31:26 02:35:14 25° 78° (ENE) 02:39:00
JUGNU 25 Mar 03:16:06 03:21:56 71° 159° (SSE) 03:27:46 437.505
CUBESAT XI-V 25 Mar 03:21:19 03:21:50 10° 78° (ENE) 03:22:21 437.345
SRMSAT 25 Mar 03:26:55 03:31:15 20° 164° (SSE) 03:35:34 437.500
AO-7 25 Mar 03:29:07 03:37:22 76° 286° (WNW) 03:45:41 .
BEESAT 25 Mar 03:34:19 03:37:06 15° 257° (WSW) 03:39:52 436.000
O/OREOS (USA 219) 25 Mar 03:52:31 03:57:05 70° 255° (WSW) 04:01:37 437.305
KKS-1 25 Mar 04:03:41 04:08:05 66° 78° (ENE) 04:12:30 437.445
ITAMSAT 1 25 Mar 04:06:50 04:09:29 14° 283° (WNW) 04:12:09 435.822/435.867
MOZHAYETS 4 25 Mar 04:09:25 04:12:06 15° 258° (WSW) 04:14:48
NO-84 25 Mar 04:23:14 04:26:33 62° 123° (ESE) 04:29:35 435.350 FM
STARS 25 Mar 04:45:31 04:49:55 89° 53° (NE) 04:54:19 437.465
CUBESAT XI-V 25 Mar 04:54:43 04:58:57 35° 258° (WSW) 05:03:08 437.345
JUGNU 25 Mar 05:05:29 05:10:59 42° 340° (NNW) 05:16:30 437.505
XW-2D 25 Mar 05:11:53 05:14:40 20° 101° (ESE) 05:17:30 145.860 - 145.880
Tancredo 1 25 Mar 05:12:21 05:13:34 12° 54° (NE) 05:14:47 437.200
SRMSAT 25 Mar 05:14:58 05:20:44 50° 159° (SSE) 05:26:31 437.500
XW-2B 25 Mar 05:17:31 05:20:33 24° 101° (ESE) 05:23:36 145.730 - 145.750
NUDT-PHONESAT 25 Mar 05:18:47 05:21:22 18° 101° (ESE) 05:23:57 437.300
KAITUO 1B 25 Mar 05:23:12 05:26:06 22° 101° (ESE) 05:29:01 145.475/437.950
XW-2C 25 Mar 05:27:13 05:30:37 34° 101° (ESE) 05:34:04 145.795 - 145.815
CUTE-I 25 Mar 05:39:50 05:44:58 50° 103° (ESE) 05:50:05 437.470
M-CUBED/EXP-1 PRIME 25 Mar 05:47:14 05:50:28 57° 74° (ENE) 05:53:50 437.505
DOVE 4 25 Mar 06:00:23 06:05:26 53° 282° (WNW) 06:10:16 437.250
YUBILEINY 25 Mar 06:02:54 06:10:05 28° 93° (E) 06:17:10 435.215
LilacSat-2 25 Mar 06:18:33 06:21:48 28° 281° (W) 06:25:05 437.200
XW-2F 25 Mar 06:20:40 06:23:56 29° 281° (W) 06:27:11 145.980 - 146.000
SEEDS 25 Mar 06:36:00 06:38:03 13° 102° (ESE) 06:40:06 437.485
STRAND 1 25 Mar 06:36:39 06:41:26 39° 78° (ENE) 06:46:13 437.568
CUTE 1.7 + AOD 2 25 Mar 06:37:42 06:41:12 25° 102° (ESE) 06:44:43 437.475
ISS 25 Mar 06:37:46 06:40:46 32° 234° (SW) 06:43:46 437.550
Tancredo 1 25 Mar 06:47:08 06:49:30 19° 234° (SW) 06:51:54 437.200
XW-2D 25 Mar 06:47:31 06:48:37 11° 281° (W) 06:49:42 145.860 - 145.880
AO-85 25 Mar 06:49:23 06:53:13 35° 69° (ENE) 06:57:21 145.980
NUDT-PHONESAT 25 Mar 06:53:43 06:55:02 12° 281° (W) 06:56:21 437.300
JUGNU 25 Mar 06:56:29 07:00:22 18° 346° (NNW) 07:04:16 437.505
SRMSAT 25 Mar 07:04:04 07:09:58 60° 339° (NNW) 07:15:53 437.500
UWE-3 25 Mar 07:08:47 07:10:19 12° 102° (ESE) 07:11:50 435.000/436.395/437.385
HO-68 25 Mar 07:28:00 07:35:08 75° 284° (WNW) 07:42:20 435.675
XW-2A 25 Mar 07:33:50 07:36:28 22° 281° (WNW) 07:39:06 145.665 - 145.685
CUBEBUG 2 25 Mar 07:35:52 07:40:02 63° 101° (ESE) 07:44:08 437.445
Oscar 11 25 Mar 07:48:34 07:51:25 17° 102° (ESE) 07:54:17 .
ZACube-1 25 Mar 07:51:52 07:55:18 26° 102° (ESE) 07:58:45 437.345
YUBILEINY 25 Mar 07:58:36 08:06:28 37° 273° (W) 08:14:18 435.215
AAUSAT CUBESAT 2 25 Mar 07:59:17 08:03:26 85° 283° (WNW) 08:07:38 437.432
SEEDS 25 Mar 08:10:07 08:13:26 23° 281° (WNW) 08:16:48 437.485
PCSat 25 Mar 08:11:50 08:17:14 88° 110° (ESE) 08:22:38 145.827
CUTE 1.7 + AOD 2 25 Mar 08:15:05 08:16:46 12° 281° (WNW) 08:18:28 437.475
STRAND 1 25 Mar 08:18:21 08:20:19 12° 257° (WSW) 08:22:16 437.568
AO-73 25 Mar 08:20:42 08:24:47 64° 101° (ESE) 08:28:52 145.935
BEESAT 3 25 Mar 08:40:23 08:44:17 59° 69° (ENE) 08:48:07 437.485
UWE-3 25 Mar 08:43:08 08:46:31 24° 282° (WNW) 08:49:52 435.000/436.395/437.385
JUGNU 25 Mar 08:49:26 08:50:19 10° 355° (N) 08:51:13 437.505
BEESAT 2 25 Mar 08:52:34 08:55:49 24° 68° (ENE) 08:59:02 435.950
SRMSAT 25 Mar 08:54:39 08:59:23 24° 343° (NNW) 09:04:07 437.500
FO-29 25 Mar 09:08:41 09:14:32 24° 76° (ENE) 09:20:26 435.910
Oscar 11 25 Mar 09:24:16 09:27:16 19° 282° (WNW) 09:30:18 .
ZACube-1 25 Mar 09:30:16 09:31:20 11° 282° (WNW) 09:32:24 437.345
PRISM 25 Mar 09:32:19 09:36:15 50° 258° (WSW) 09:40:10 437.425
DELFI C3 25 Mar 09:34:56 09:38:50 54° 281° (W) 09:42:45 145.870
TIGRISAT 25 Mar 09:38:07 09:42:44 64° 78° (ENE) 09:47:22 435.000
UNISAT 6 25 Mar 09:47:40 09:52:21 86° 261° (W) 09:57:03 437.425
LO-87 25 Mar 10:07:57 10:10:55 24° 101° (E) 10:13:52 145.935 - 145.965
BEESAT 2 25 Mar 10:31:56 10:33:19 12° 248° (WSW) 10:34:42 435.950
RS-15 25 Mar 10:35:17 10:46:18 56° 110° (ESE) 10:57:49 29.354- 29.394
NANOSAT C BR1 25 Mar 10:37:47 10:40:12 15° 78° (ENE) 10:42:35 145.865
JUGNU 25 Mar 10:39:14 10:40:33 11° 6° (N) 10:41:52 437.505
EO-79 25 Mar 10:40:40 10:43:38 19° 78° (ENE) 10:46:37 145.935-145.965
SRMSAT 25 Mar 10:47:00 10:49:20 12° 351° (N) 10:51:39 437.500
FO-29 25 Mar 10:51:56 10:59:06 45° 257° (WSW) 11:06:30 435.910
POLYITAN 1 25 Mar 11:07:06 11:11:13 46° 78° (ENE) 11:15:19 437.675
VELOX 1 25 Mar 11:10:40 11:13:51 19° 102° (ESE) 11:17:01 145.980
QB50P2 25 Mar 11:11:32 11:15:45 60° 78° (ENE) 11:19:58 145.880/145.840
AIST 2D 25 Mar 11:15:01 11:18:28 49° 259° (W) 11:21:55 435.315
ESTCUBE 1 25 Mar 11:25:58 11:30:21 52° 282° (WNW) 11:34:46 437.505/2401.250
DUCHIFAT 1 25 Mar 11:26:18 11:30:32 71° 79° (ENE) 11:34:45 145.980
BUGSAT 1 25 Mar 11:49:33 11:53:21 34° 78° (ENE) 11:57:10 437.445
SPROUT 25 Mar 12:06:19 12:10:34 78° 283° (WNW) 12:14:49 437.525
NANOSAT C BR1 25 Mar 12:12:23 12:15:38 21° 258° (WSW) 12:18:53 145.865
EO-79 25 Mar 12:16:19 12:19:08 17° 258° (WSW) 12:21:57 145.935-145.965
JUGNU 25 Mar 12:26:19 12:30:28 19° 15° (NNE) 12:34:38 437.505
DX 1 25 Mar 12:28:05 12:32:28 79° 103° (ESE) 12:36:50 434.975-435.025
50 SAT 25 Mar 12:45:48 12:48:32 21° 281° (W) 12:51:17 437.505
VELOX 1 25 Mar 12:46:56 12:50:01 19° 282° (WNW) 12:53:07 145.980
RS-15 25 Mar 12:49:27 12:58:25 26° 293° (WNW) 13:07:47 29.354- 29.394
UKube-1 25 Mar 13:11:48 13:15:46 37° 282° (WNW) 13:19:47 .
Oscar 19 25 Mar 13:16:43 13:21:50 75° 258° (WSW) 13:26:56 437.125/150
Gurwin Techsat 1B 25 Mar 13:18:17 13:23:29 54° 77° (ENE) 13:28:38 435.225
SO-50 25 Mar 13:20:37 13:25:18 60° 292° (WNW) 13:29:55 436.795
AO-7 25 Mar 14:05:20 14:11:29 23° 73° (ENE) 14:17:35 .
JUGNU 25 Mar 14:14:09 14:19:51 45° 20° (NNE) 14:25:35 437.505
BEESAT 25 Mar 14:16:45 14:21:21 52° 102° (ESE) 14:25:58 436.000
SRMSAT 25 Mar 14:26:37 14:29:57 15° 12° (NNE) 14:33:18 437.500
ITUPSAT 1 25 Mar 14:31:46 14:36:30 82° 100° (E) 14:41:16 437.325
MOZHAYETS 4 25 Mar 14:47:29 14:51:45 41° 102° (ESE) 14:56:04
ITAMSAT 1 25 Mar 15:00:05 15:05:19 88° 255° (WSW) 15:10:33 435.822/435.867
CUBESAT XI-V 25 Mar 15:36:38 15:39:56 19° 102° (ESE) 15:43:13 437.345
AO-7 25 Mar 15:55:57 16:03:52 48° 254° (WSW) 16:11:46 .
JUGNU 25 Mar 16:02:59 16:08:57 66° 201° (SSW) 16:14:54 437.505
O/OREOS (USA 219) 25 Mar 16:03:52 16:08:02 39° 284° (WNW) 16:12:13 437.305
NO-84 25 Mar 16:06:14 16:10:02 56° 59° (ENE) 16:14:10 435.350 FM
SRMSAT 25 Mar 16:14:22 16:19:40 33° 19° (NNE) 16:24:57 437.500
KKS-1 25 Mar 16:16:01 16:20:28 82° 282° (WNW) 16:24:56 437.445
DOVE 4 25 Mar 16:45:56 16:47:55 13° 77° (ENE) 16:49:56 437.250
STARS 25 Mar 16:56:20 17:00:39 63° 283° (WNW) 17:05:00 437.465
XW-2D 25 Mar 17:05:56 17:08:28 17° 79° (E) 17:10:58 145.860 - 145.880
NUDT-PHONESAT 25 Mar 17:11:02 17:13:05 14° 79° (ENE) 17:15:08 437.300
XW-2B 25 Mar 17:11:31 17:14:21 20° 79° (E) 17:17:10 145.730 - 145.750
CUBESAT XI-V 25 Mar 17:13:32 17:17:01 21° 282° (WNW) 17:20:32 437.345
KAITUO 1B 25 Mar 17:16:01 17:18:35 17° 79° (E) 17:21:07 145.475/437.950
XW-2C 25 Mar 17:21:07 17:24:27 28° 79° (E) 17:27:47 145.795 - 145.815
M-CUBED/EXP-1 PRIME 25 Mar 17:45:32 17:50:07 62° 106° (ESE) 17:54:31 437.505
JUGNU 25 Mar 17:53:17 17:58:11 26° 198° (SSW) 18:03:03 437.505
SRMSAT 25 Mar 18:02:59 18:08:57 88° 21° (NNE) 18:14:55 437.500
ISS 25 Mar 18:11:27 18:14:38 56° 305° (NW) 18:17:48 437.550
LilacSat-2 25 Mar 18:12:41 18:16:16 35° 259° (WSW) 18:19:48 437.200
XW-2F 25 Mar 18:13:46 18:17:21 37° 259° (WSW) 18:20:54 145.980 - 146.000
Tancredo 1 25 Mar 18:18:09 18:21:02 33° 305° (NW) 18:23:54 437.200
CUTE-I 25 Mar 18:19:03 18:24:17 55° 257° (WSW) 18:29:31 437.470
DOVE 4 25 Mar 18:21:48 18:25:18 25° 259° (W) 18:28:57 437.250
YUBILEINY 25 Mar 18:34:56 18:43:23 55° 87° (E) 18:51:53 435.215
XW-2D 25 Mar 18:40:14 18:42:22 14° 258° (WSW) 18:44:32 145.860 - 145.880
SEEDS 25 Mar 18:40:46 18:43:18 16° 79° (ENE) 18:45:49 437.485
CUTE 1.7 + AOD 2 25 Mar 18:43:49 18:47:35 31° 79° (ENE) 18:51:19 437.475
NUDT-PHONESAT 25 Mar 18:44:18 18:46:44 16° 259° (WSW) 18:49:10 437.300
XW-2B 25 Mar 18:46:39 18:48:16 12° 258° (WSW) 18:49:53 145.730 - 145.750
KAITUO 1B 25 Mar 18:50:24 18:52:19 14° 258° (WSW) 18:54:14 145.475/437.950
AO-85 25 Mar 19:01:52 19:06:53 75° 112° (ESE) 19:11:31 145.980
PCSat 25 Mar 19:06:37 19:10:14 18° 70° (ENE) 19:13:52 145.827
STRAND 1 25 Mar 19:08:52 19:13:57 81° 283° (WNW) 19:19:03 437.568
XW-2A 25 Mar 19:15:57 19:19:16 45° 259° (WSW) 19:22:35 145.665 - 145.685
UWE-3 25 Mar 19:17:55 19:21:20 20° 78° (ENE) 19:24:44 435.000/436.395/437.385
HO-68 25 Mar 19:19:38 19:26:50 88° 258° (WSW) 19:33:59 435.675
JUGNU 25 Mar 19:45:21 19:47:53 13° 190° (S) 19:50:25 437.505
CUBEBUG 2 25 Mar 19:47:27 19:52:08 84° 258° (WSW) 19:56:52 437.445
SRMSAT 25 Mar 19:52:53 19:58:13 34° 199° (SSW) 20:03:33 437.500
Oscar 11 25 Mar 19:56:43 20:00:10 23° 78° (ENE) 20:03:36 .
ZACube-1 25 Mar 20:00:48 20:05:05 39° 79° (ENE) 20:09:21 437.345
AAUSAT CUBESAT 2 25 Mar 20:02:52 20:06:59 75° 259° (W) 20:11:04 437.432
SEEDS 25 Mar 20:15:43 20:18:43 19° 258° (WSW) 20:21:43 437.485
AO-73 25 Mar 20:29:39 20:34:14 90° 311° (NW) 20:38:48 145.935
BEESAT 3 25 Mar 20:32:11 20:35:56 58° 111° (ESE) 20:39:44 437.485
YUBILEINY 25 Mar 20:34:31 20:39:48 18° 267° (W) 20:45:08 435.215
BEESAT 2 25 Mar 20:45:37 20:48:47 24° 112° (ESE) 20:51:57 435.950
PCSat 25 Mar 20:48:44 20:53:21 29° 251° (WSW) 20:58:00 145.827
UWE-3 25 Mar 20:54:08 20:57:29 20° 258° (WSW) 21:00:52 435.000/436.395/437.385
DELFI C3 25 Mar 21:33:22 21:37:14 56° 258° (WSW) 21:41:04 145.870
Oscar 11 25 Mar 21:33:42 21:36:01 14° 258° (WSW) 21:38:19 .
PRISM 25 Mar 21:34:45 21:38:45 47° 282° (WNW) 21:42:47 437.425
SRMSAT 25 Mar 21:44:29 21:47:53 15° 193° (SSW) 21:51:18 437.500
TIGRISAT 25 Mar 21:51:32 21:55:48 84° 283° (WNW) 22:00:03 435.000
LO-87 25 Mar 21:56:49 21:58:56 15° 79° (ENE) 22:01:03 145.935 - 145.965
UNISAT 6 25 Mar 22:01:26 22:05:36 53° 282° (WNW) 22:09:45 437.425
ESTCUBE 1 25 Mar 22:06:59 22:07:57 11° 78° (ENE) 22:08:55 437.505/2401.250
RS-15 25 Mar 22:18:28 22:29:35 47° 69° (ENE) 22:40:06 29.354- 29.394
BEESAT 2 25 Mar 22:25:26 22:26:17 11° 293° (WNW) 22:27:09 435.950
FO-29 25 Mar 22:26:54 22:32:12 70° 283° (WNW) 22:37:21 435.910
NANOSAT C BR1 25 Mar 22:43:02 22:45:47 17° 102° (ESE) 22:48:34 145.865
EO-79 25 Mar 22:46:23 22:49:37 22° 102° (ESE) 22:52:52 145.935-145.965
AIST 2D 25 Mar 23:01:02 23:04:29 89° 100° (E) 23:07:59 435.315
POLYITAN 1 25 Mar 23:13:16 23:17:22 57° 102° (ESE) 23:21:28 437.675
QB50P2 25 Mar 23:17:45 23:21:56 75° 102° (ESE) 23:26:08 145.880/145.840
VELOX 1 25 Mar 23:21:39 23:25:21 27° 78° (ENE) 23:29:02 145.980
